軌道要素
Epoch 2024 Mar. 31.0 TT = JDT 2460400.5
T 2022 Dec. 19.60620 TT Rudenko
q 1.7977632 (2000.0) P Q
z -0.0002567 Peri. 236.20745 +0.01788529 +0.04914816
+/-0.0000001 Node 88.22943 -0.18076238 +0.98249146
e 1.0004615 Incl. 87.58029 -0.98336416 -0.17970806
>From 11090 observations 2013 May 12-2024 Feb. 25, mean residual 0".9.
|